Location: *
(40.7873°S, 98.7174°E)
Time: 21:29:41
(UTC+00:00)

Cosmos 192 - Pass Details

Date: 26 September 2022
Orbit: 701 x 711 km, 74.0° (Epoch: 05 December)

Event Time Altitude Azimuth Distance (km) Brightness Sun altitude
Rises 19:52:34 0° 184° (S) 3,136 8.1 -34.8°
Reaches altitude 10° 19:55:47 10° 163° (SSE) 2,211 7.5 -34.3°
Maximum altitude 19:58:54 16° 124° (SE) 1,809 7.1 -33.9°
Drops below altitude 10° 20:02:00 10° 85° (E) 2,199 7.4 -33.4°
Sets 20:05:10 0° 64° (ENE) 3,111 8.0 -32.9°
